Date String (YYYY-MM-DD hh:mm:ss) UTC,Instrument flags,Ambient pressure (hPa),Sample flow (lpm),Bypass flow (lpm),Sample temperature (°C),Ambient temperature (°C),ASC tube jacket temperature (°C),LED temperature (°C),Box temperature (°C),Sample RH (%),Span deviation,Mass concentration (μg/m³),Mass concentration (μg/m³),Mass concentration (μg/m³)
DateTimeUTC,F1_M11,P_M11,Q1_M11,Q2_M11,T1_M11,T2_M11,T3_M11,T4_M11,T5_M11,U1_M11,ZSPAN_M11,X0_M11,X2_M11,X1_M11
2022-08-13 02:00:00,,0829.1,5.00,0.00,29.3,28.2,00.0,37.9,31.2,26.3,0000.0,0017.47,0004.92,0003.79
2022-08-13 02:01:00,,0829.1,5.00,0.00,29.3,28.3,00.0,37.9,31.3,26.3,0000.0,0018.23,0004.88,0003.79
2022-08-13 02:02:00,,0829.1,5.01,0.00,29.3,27.8,00.0,37.9,31.0,26.4,0000.0,0017.43,0004.85,0003.78
2022-08-13 02:03:00,,0829.1,4.99,0.00,29.2,27.2,00.0,37.9,30.9,26.4,0000.0,0016.40,0004.87,0003.76
2022-08-13 02:04:00,,0829.0,5.01,0.00,29.2,27.1,00.0,37.9,30.9,26.5,0000.0,0015.58,0004.86,0003.76
2022-08-13 02:05:00,,0829.0,4.99,0.00,29.1,27.1,00.0,37.9,30.8,26.6,0000.0,0015.37,0004.84,0003.76
2022-08-13 02:06:00,,0829.0,5.01,0.00,29.1,27.3,00.0,37.9,30.9,26.7,0000.0,0016.20,0004.84,0003.75
2022-08-13 02:07:00,,0829.0,4.99,0.00,29.1,27.5,00.0,37.9,30.9,26.7,0000.0,0015.75,0004.82,0003.75
2022-08-13 02:08:00,,0829.0,5.00,0.00,29.1,27.7,00.0,37.9,31.0,26.6,0000.0,0015.85,0004.84,0003.74
2022-08-13 02:09:00,,0829.0,5.00,0.00,29.2,27.9,00.0,37.9,31.1,26.5,0000.0,0016.04,0004.86,0003.75
2022-08-13 02:10:00,,0829.0,5.00,0.00,29.2,28.1,00.0,37.9,31.2,26.5,0000.0,0015.57,0004.86,0003.75
2022-08-13 02:11:00,,0829.0,5.00,0.00,29.3,28.3,00.0,37.9,31.3,26.4,0000.0,0014.97,0004.88,0003.76
2022-08-13 02:12:00,,0829.0,5.00,0.00,29.3,28.2,00.0,37.9,31.2,26.3,0000.0,0013.73,0004.92,0003.77
2022-08-13 02:13:00,,0829.0,5.01,0.00,29.3,27.5,00.0,37.9,31.0,26.4,0000.0,0013.95,0004.94,0003.79
2022-08-13 02:14:00,,0829.0,4.99,0.00,29.2,27.1,00.0,37.9,30.9,26.8,0000.0,0014.33,0004.97,0003.80
2022-08-13 02:15:00,,0829.0,5.01,0.00,29.1,27.0,00.0,37.9,30.9,27.0,0000.0,0014.29,0005.04,0003.83
2022-08-13 02:16:00,,0829.0,5.00,0.00,29.1,27.1,00.0,37.9,30.8,27.0,0000.0,0015.03,0005.08,0003.84
2022-08-13 02:17:00,,0829.0,5.00,0.00,29.1,27.3,00.0,37.9,30.9,27.5,0000.0,0014.35,0005.07,0003.86
2022-08-13 02:18:00,,0829.0,5.00,0.00,29.1,27.5,00.0,37.9,31.0,27.0,0000.0,0013.98,0005.14,0003.89
2022-08-13 02:19:00,,0829.0,5.01,0.00,29.1,27.7,00.0,37.9,31.0,26.8,0000.0,0014.16,0005.13,0003.90
2022-08-13 02:20:00,,0829.1,5.01,0.00,29.2,27.9,00.0,37.9,31.1,26.6,0000.0,0013.55,0005.09,0003.91
2022-08-13 02:21:00,,0829.0,5.00,0.00,29.2,28.1,00.0,37.9,31.2,26.9,0000.0,0013.00,0005.11,0003.92
2022-08-13 02:22:00,,0829.1,5.00,0.00,29.3,28.3,00.0,37.9,31.3,27.2,0000.0,0012.88,0005.11,0003.94
2022-08-13 02:23:00,,0829.1,4.99,0.00,29.3,27.9,00.0,37.9,31.1,27.5,0000.0,0012.87,0005.11,0003.95
2022-08-13 02:24:00,,0829.0,5.01,0.00,29.2,27.2,00.0,37.9,30.9,27.3,0000.0,0013.04,0005.15,0003.96
2022-08-13 02:25:00,,0829.0,4.99,0.00,29.1,26.9,00.0,37.9,30.9,27.0,0000.0,0012.42,0005.15,0003.97
2022-08-13 02:26:00,,0829.0,5.00,0.00,29.1,26.9,00.0,37.8,30.8,26.8,0000.0,0012.26,0005.07,0003.97
2022-08-13 02:27:00,,0829.1,5.00,0.00,29.0,27.0,00.0,37.8,30.7,27.2,0000.0,0012.31,0005.00,0003.97
2022-08-13 02:28:00,,0829.1,5.00,0.00,29.0,27.3,00.0,37.8,30.8,27.5,0000.0,0012.43,0005.00,0003.97
2022-08-13 02:29:00,,0829.0,5.01,0.00,29.1,27.5,00.0,37.8,30.9,27.4,0000.0,0012.31,0004.97,0003.97
2022-08-13 02:30:00,,0829.1,4.99,0.00,29.1,27.7,00.0,37.9,31.0,27.0,0000.0,0012.89,0004.99,0003.98
2022-08-13 02:31:00,,0829.1,5.00,0.00,29.1,27.9,00.0,37.9,31.1,27.0,0000.0,0013.94,0005.08,0004.00
2022-08-13 02:32:00,,0829.1,5.00,0.00,29.2,28.1,00.0,37.9,31.2,27.1,0000.0,0013.96,0005.08,0004.03
2022-08-13 02:33:00,,0829.1,5.00,0.00,29.2,28.3,00.0,37.9,31.3,27.1,0000.0,0014.03,0005.11,0004.04
2022-08-13 02:34:00,,0829.2,4.99,0.00,29.3,28.3,00.0,37.9,31.3,27.3,0000.0,0013.95,0005.14,0004.06
2022-08-13 02:35:00,,0829.2,5.00,0.00,29.3,27.8,00.0,37.9,31.1,27.3,0000.0,0014.72,0005.13,0004.08
2022-08-13 02:36:00,,0829.1,4.98,0.00,29.2,27.2,00.0,37.9,30.9,27.8,0000.0,0015.94,0005.16,0004.10
2022-08-13 02:37:00,,0829.2,4.99,0.00,29.2,27.0,00.0,37.9,30.8,27.9,0000.0,0016.16,0005.17,0004.12
2022-08-13 02:38:00,,0829.2,5.00,0.00,29.1,27.1,00.0,37.8,30.8,27.9,0000.0,0015.55,0005.19,0004.14
2022-08-13 02:39:00,,0829.2,5.00,0.00,29.0,27.2,00.0,37.8,30.8,27.8,0000.0,0015.24,0005.22,0004.15
2022-08-13 02:40:00,,0829.2,5.00,0.00,29.1,27.4,00.0,37.8,30.9,27.7,0000.0,0016.34,0005.27,0004.16
2022-08-13 02:41:00,,0829.2,4.99,0.00,29.1,27.6,00.0,37.8,30.9,27.7,0000.0,0016.43,0005.32,0004.18
2022-08-13 02:42:00,,0829.2,5.00,0.00,29.1,27.8,00.0,37.9,31.0,27.2,0000.0,0016.31,0005.36,0004.19
2022-08-13 02:43:00,,0829.2,5.00,0.00,29.2,28.0,00.0,37.9,31.1,27.1,0000.0,0016.73,0005.42,0004.20
2022-08-13 02:44:00,,0829.2,5.00,0.00,29.2,28.2,00.0,37.9,31.2,26.9,0000.0,0017.61,0005.48,0004.21
2022-08-13 02:45:00,,0829.2,5.01,0.00,29.3,28.3,00.0,37.9,31.3,26.9,0000.0,0019.23,0005.51,0004.22
2022-08-13 02:46:00,,0829.2,5.00,0.00,29.3,28.3,00.0,37.9,31.2,26.6,0000.0,0019.90,0005.59,0004.24
2022-08-13 02:47:00,,0829.2,5.00,0.00,29.3,27.6,00.0,37.9,31.0,26.6,0000.0,0019.04,0005.63,0004.27
2022-08-13 02:48:00,,0829.2,5.00,0.00,29.2,27.1,00.0,37.9,30.9,26.7,0000.0,0019.35,0005.72,0004.28
2022-08-13 02:49:00,,0829.3,5.00,0.00,29.1,27.0,00.0,37.9,30.8,26.8,0000.0,0019.64,0005.77,0004.30
2022-08-13 02:50:00,,0829.3,5.01,0.00,29.0,27.0,00.0,37.8,30.8,27.0,0000.0,0020.12,0005.87,0004.32
2022-08-13 02:51:00,,0829.3,5.00,0.00,29.0,27.2,00.0,37.8,30.8,27.1,0000.0,0021.31,0005.90,0004.34
2022-08-13 02:52:00,,0829.3,5.01,0.00,29.0,27.4,00.0,37.8,30.9,27.1,0000.0,0020.99,0005.88,0004.35
2022-08-13 02:53:00,,0829.3,4.99,0.00,29.1,27.6,00.0,37.8,31.0,27.0,0000.0,0020.30,0005.85,0004.36
2022-08-13 02:54:00,,0829.3,5.00,0.00,29.1,27.8,00.0,37.9,31.0,27.1,0000.0,0020.13,0005.87,0004.36
2022-08-13 02:55:00,,0829.2,4.99,0.00,29.1,28.0,00.0,37.9,31.1,27.0,0000.0,0019.30,0005.86,0004.38
2022-08-13 02:56:00,,0829.3,5.00,0.00,29.2,28.2,00.0,37.9,31.2,27.0,0000.0,0018.15,0005.92,0004.40
2022-08-13 02:57:00,,0829.3,5.00,0.00,29.2,28.3,00.0,37.9,31.3,27.1,0000.0,0018.25,0005.97,0004.39
2022-08-13 02:58:00,,0829.3,5.00,0.00,29.3,28.4,00.0,37.9,31.3,27.0,0000.0,0019.60,0005.98,0004.38
2022-08-13 02:59:00,,0829.3,5.01,0.00,29.3,27.8,00.0,37.9,31.1,26.7,0000.0,0020.21,0005.94,0004.37
